Santa Ana, CA

12:46 PM PST on March 06, 2015 (GMT -0800)
MesoWest Santa Ana Fire CA US SGXWFO | Change Station
CLOSE
Current Station
Personal Weather Station
Location: Santa Ana, CA
Elevation: 109 ft
Nearby Weather Stations
Active Advisory: Wind Advisory Active Notice: Public Information Statement

Elev 109 ft 33.74 °N, 117.87 °W | Updated 49 minutes ago

Clear
Clear
83 °F
Feels Like 80 °F
N
6
Wind Variable Wind from NNE
Gusts 0.0 mph

Today
High -- | Low -- °F
--% Chance of Precip.
Yesterday
High -- | Low -- °F
Precip. -- in
6:13 AM 5:51 PM
Full, 99% visible
Pressure 30.06 in
Visibility 10.0 miles
Clouds Clear
Heat Index 80 °F
Dew Point 16 °F
Humidity 8%
Rainfall in
Snow Depth Not available.
UV 8 out of 12
Pollen 9.20 out of 12
Air Quality Not available.
Flu Activity Not available.
METAR KSNA 061953Z 06013G24KT 10SM CLR 31/M11 A3006 RMK AO2 SLP179 T03061106

More Conditions Fewer Conditions

Pressure 30.06 in
Visibility 10.0 miles
Clouds Clear
Heat Index 80 °F
Dew Point 16 °F
Humidity 8%
Rainfall in
Snow Depth Not available.
UV 8 out of 12
Pollen 9.20 out of 12
Air Quality Not available.
Flu Activity Not available.
METAR KSNA 061953Z 06013G24KT 10SM CLR 31/M11 A3006 RMK AO2 SLP179 T03061106

More Conditions Fewer Conditions

10-Day Weather Forecast

Almanac

Astronomy

Mar. 06, 2015 Rise Set
Actual Time
Civil Twilight
Nautical Twilight
Astronomical Twilight
Moon
Length of Visible Light
Length of Day
Tomorrow will be .
, % of the Moon is Illuminated

Today's Extremes

State Highs State Lows

Community

WunderPhotos

Upload Photos

1,803,389 photos uploaded!

WunderBlogs® & News

Nearby

Air Quality

  Air Quality AQ Index Pollutant
Not available.

Snow Depth

Station Depth Elevation

Earthquake Activity

City Distance Mag. Time & Date
Minimum magnitude displayed is 2.5.

Coastal Water Temperatures

Place Temperature

Nearby Weather Stations

Wind Advisory
Statement as of 3:05 AM PST on March 06, 2015

... Wind Advisory now in effect until noon PST Saturday...

* winds... areas of northeast to east winds 20 to 30 mph with gusts
to 50 mph.

* Location... strongest winds below passes and canyons and near
coastal mountain slopes.

* Timing... strongest winds this morning and again late tonight
through Saturday morning.

* Impacts... strong winds will make driving difficult for high
profile vehicles.

Precautionary/preparedness actions...

A Wind Advisory means that winds of 35 mph are expected. Winds
this strong can make driving difficult... especially for high
profile vehicles. Use extra caution.